Time,TemperatureF,DewpointF,PressureIn,WindDirection,WindDirectionDegrees,WindSpeedMPH,WindSpeedGustMPH,Humidity,HourlyPrecipIn,Conditions,Clouds,dailyrainin,SoftwareType,DateUTC
2013-02-26 00:01:00,32.0,-99.9,30.83,ESE,110,2.0,4.0,-999,-99.99,,,-99.99,,2013-02-26 05:01:00,
2013-02-26 00:12:00,32.0,-99.9,30.13,ESE,110,2.0,4.0,-999,-99.99,,,-99.99,,2013-02-26 05:12:00,
2013-02-26 00:22:00,32.0,-99.9,30.13,ESE,110,2.0,4.0,-999,-99.99,,,-99.99,,2013-02-26 05:22:00,
2013-02-26 00:32:00,32.0,-99.9,30.84,ESE,121,3.0,5.0,-999,-99.99,,,-99.99,,2013-02-26 05:32:00,
2013-02-26 00:43:00,32.0,-99.9,30.14,ESE,121,3.0,5.0,-999,-99.99,,,-99.99,,2013-02-26 05:43:00,
2013-02-26 00:52:00,32.0,-99.9,30.14,ESE,121,3.0,5.0,-999,-99.99,,,-99.99,,2013-02-26 05:52:00,
2013-02-26 01:02:00,32.0,-99.9,30.14,SE,126,2.0,4.0,-999,-99.99,,,-99.99,,2013-02-26 06:02:00,
2013-02-26 01:11:00,32.0,-99.9,30.15,SE,126,2.0,4.0,-999,-99.99,,,-99.99,,2013-02-26 06:11:00,
2013-02-26 01:22:00,32.0,-99.9,30.87,North,-999,0.0,4.0,-999,-99.99,,,-99.99,,2013-02-26 06:22:00,
2013-02-26 01:32:00,32.0,-99.9,30.17,North,-999,0.0,4.0,-999,-99.99,,,-99.99,,2013-02-26 06:32:00,
2013-02-26 01:42:00,32.0,-99.9,30.17,North,-999,0.0,4.0,-999,-99.99,,,-99.99,,2013-02-26 06:42:00,
2013-02-26 01:52:00,32.0,-99.9,30.17,North,-999,0.0,4.0,-999,-99.99,,,-99.99,,2013-02-26 06:52:00,
2013-02-26 02:01:00,32.0,-99.9,30.86,East,88,2.0,2.0,-999,-99.99,,,-99.99,,2013-02-26 07:01:00,
2013-02-26 02:11:00,32.0,-99.9,30.16,East,88,2.0,2.0,-999,-99.99,,,-99.99,,2013-02-26 07:11:00,
2013-02-26 02:22:00,32.0,-99.9,30.87,North,-999,0.0,4.0,-999,-99.99,,,-99.99,,2013-02-26 07:22:00,
2013-02-26 02:32:00,33.0,-99.9,30.86,East,88,2.0,5.0,-999,-99.99,,,-99.99,,2013-02-26 07:32:00,
2013-02-26 02:42:00,33.0,-99.9,30.16,East,88,2.0,5.0,-999,-99.99,,,-99.99,,2013-02-26 07:42:00,
2013-02-26 02:52:00,33.0,-99.9,30.16,East,88,2.0,5.0,-999,-99.99,,,-99.99,,2013-02-26 07:52:00,
2013-02-26 03:02:00,32.0,-99.9,30.16,ESE,103,4.0,5.0,-999,-99.99,,,-99.99,,2013-02-26 08:02:00,
2013-02-26 03:11:00,32.0,-99.9,30.15,ESE,103,4.0,5.0,-999,-99.99,,,-99.99,,2013-02-26 08:11:00,
2013-02-26 03:22:00,32.0,-99.9,30.15,ESE,103,4.0,5.0,-999,-99.99,,,-99.99,,2013-02-26 08:22:00,
2013-02-26 03:32:00,32.0,-99.9,30.85,ESE,122,3.0,8.0,-999,-99.99,,,-99.99,,2013-02-26 08:32:00,
2013-02-26 03:40:00,33.0,-99.9,30.13,SE,128,4.0,7.0,-999,-99.99,,,-99.99,,2013-02-26 08:40:00,
2013-02-26 03:42:00,32.0,-99.9,30.15,ESE,122,3.0,8.0,-999,-99.99,,,-99.99,,2013-02-26 08:42:00,
2013-02-26 03:52:00,32.0,-99.9,30.15,ESE,122,3.0,8.0,-999,-99.99,,,-99.99,,2013-02-26 08:52:00,
2013-02-26 04:02:00,33.0,-99.9,30.83,SE,128,4.0,7.0,-999,-99.99,,,-99.99,,2013-02-26 09:02:00,
2013-02-26 04:11:00,33.0,-99.9,30.13,SE,128,4.0,7.0,-999,-99.99,,,-99.99,,2013-02-26 09:11:00,
2013-02-26 04:21:00,33.0,-99.9,30.13,SE,128,4.0,7.0,-999,-99.99,,,-99.99,,2013-02-26 09:21:00,
2013-02-26 04:32:00,33.0,-99.9,30.13,SE,128,4.0,7.0,-999,-99.99,,,-99.99,,2013-02-26 09:32:00,
2013-02-26 05:01:00,32.0,-99.9,30.82,ESE,102,3.0,9.0,-999,-99.99,,,-99.99,,2013-02-26 10:01:00,
2013-02-26 05:11:00,32.0,-99.9,30.12,ESE,102,3.0,9.0,-999,-99.99,,,-99.99,,2013-02-26 10:11:00,
2013-02-26 05:21:00,32.0,-99.9,30.82,ESE,106,6.0,10.0,-999,-99.99,,,-99.99,,2013-02-26 10:21:00,
2013-02-26 05:32:00,32.0,-99.9,30.12,ESE,106,6.0,10.0,-999,-99.99,,,-99.99,,2013-02-26 10:32:00,
2013-02-26 05:40:00,32.0,-99.9,30.11,ESE,106,4.0,10.0,-999,-99.99,,,-99.99,,2013-02-26 10:40:00,
2013-02-26 05:42:00,32.0,-99.9,30.12,ESE,106,6.0,10.0,-999,-99.99,,,-99.99,,2013-02-26 10:42:00,
2013-02-26 05:52:00,32.0,-99.9,30.12,ESE,106,6.0,10.0,-999,-99.99,,,-99.99,,2013-02-26 10:52:00,
2013-02-26 06:01:00,32.0,-99.9,30.81,ESE,106,4.0,10.0,-999,-99.99,,,-99.99,,2013-02-26 11:01:00,
2013-02-26 06:12:00,32.0,-99.9,30.11,ESE,106,4.0,10.0,-999,-99.99,,,-99.99,,2013-02-26 11:12:00,
2013-02-26 06:22:00,32.0,-99.9,30.11,ESE,106,4.0,10.0,-999,-99.99,,,-99.99,,2013-02-26 11:22:00,
2013-02-26 06:32:00,32.0,-99.9,30.11,ESE,106,4.0,10.0,-999,-99.99,,,-99.99,,2013-02-26 11:32:00,
2013-02-26 06:40:00,31.0,-99.9,30.10,East,101,9.0,18.0,-999,-99.99,,,-99.99,,2013-02-26 11:40:00,
2013-02-26 07:02:00,31.0,-99.9,30.80,East,101,9.0,18.0,-999,-99.99,,,-99.99,,2013-02-26 12:02:00,
2013-02-26 07:11:00,31.0,-99.9,30.10,East,101,9.0,18.0,-999,-99.99,,,-99.99,,2013-02-26 12:11:00,
2013-02-26 07:22:00,31.0,-99.9,30.10,East,101,9.0,18.0,-999,-99.99,,,-99.99,,2013-02-26 12:22:00,
2013-02-26 07:33:00,31.0,-99.9,30.10,East,101,9.0,18.0,-999,-99.99,,,-99.99,,2013-02-26 12:33:00,
2013-02-26 07:40:00,30.0,-99.9,30.10,East,99,7.0,13.0,-999,-99.99,,,-99.99,,2013-02-26 12:40:00,
2013-02-26 08:02:00,30.0,-99.9,30.80,East,99,7.0,13.0,-999,-99.99,,,-99.99,,2013-02-26 13:02:00,
2013-02-26 08:11:00,30.0,-99.9,30.10,East,99,7.0,13.0,-999,-99.99,,,-99.99,,2013-02-26 13:11:00,
2013-02-26 08:22:00,30.0,-99.9,30.10,East,99,7.0,13.0,-999,-99.99,,,-99.99,,2013-02-26 13:22:00,
2013-02-26 08:32:00,30.0,-99.9,30.10,East,99,7.0,13.0,-999,-99.99,,,-99.99,,2013-02-26 13:32:00,
2013-02-26 08:40:00,30.0,-99.9,30.10,East,87,8.0,15.0,-999,-99.99,,,-99.99,,2013-02-26 13:40:00,
2013-02-26 09:02:00,30.0,-99.9,30.80,East,87,8.0,15.0,-999,-99.99,,,-99.99,,2013-02-26 14:02:00,
2013-02-26 09:11:00,30.0,-99.9,30.10,East,87,8.0,15.0,-999,-99.99,,,-99.99,,2013-02-26 14:11:00,
2013-02-26 09:22:00,30.0,-99.9,30.10,East,87,8.0,15.0,-999,-99.99,,,-99.99,,2013-02-26 14:22:00,
2013-02-26 09:32:00,30.0,-99.9,30.10,East,87,8.0,15.0,-999,-99.99,,,-99.99,,2013-02-26 14:32:00,
2013-02-26 10:02:00,31.0,-99.9,30.79,East,87,10.0,16.0,-999,-99.99,,,-99.99,,2013-02-26 15:02:00,
2013-02-26 10:12:00,31.0,-99.9,30.09,East,87,10.0,16.0,-999,-99.99,,,-99.99,,2013-02-26 15:12:00,
2013-02-26 10:22:00,31.0,-99.9,30.78,ENE,66,15.0,18.0,-999,-99.99,,,-99.99,,2013-02-26 15:22:00,
2013-02-26 10:32:00,31.0,-99.9,30.08,ENE,66,15.0,18.0,-999,-99.99,,,-99.99,,2013-02-26 15:32:00,
2013-02-26 10:42:00,31.0,-99.9,30.08,ENE,66,15.0,18.0,-999,-99.99,,,-99.99,,2013-02-26 15:42:00,
2013-02-26 10:52:00,31.0,-99.9,30.08,ENE,66,15.0,18.0,-999,-99.99,,,-99.99,,2013-02-26 15:52:00,
2013-02-26 11:02:00,32.0,-99.9,30.75,East,86,15.0,23.0,-999,-99.99,,,-99.99,,2013-02-26 16:02:00,
2013-02-26 11:11:00,32.0,-99.9,30.05,East,86,15.0,23.0,-999,-99.99,,,-99.99,,2013-02-26 16:11:00,
2013-02-26 11:22:00,32.0,-99.9,30.05,East,86,15.0,23.0,-999,-99.99,,,-99.99,,2013-02-26 16:22:00,
2013-02-26 11:32:00,32.0,-99.9,30.05,East,86,15.0,23.0,-999,-99.99,,,-99.99,,2013-02-26 16:32:00,
2013-02-26 11:42:00,33.0,-99.9,30.04,East,88,14.0,24.0,-999,-99.99,,,-99.99,,2013-02-26 16:42:00,
2013-02-26 11:52:00,33.0,-99.9,30.74,East,88,14.0,24.0,-999,-99.99,,,-99.99,,2013-02-26 16:52:00,
2013-02-26 12:01:00,34.0,-99.9,30.72,East,92,15.0,25.0,-999,-99.99,,,-99.99,,2013-02-26 17:01:00,
2013-02-26 12:11:00,34.0,-99.9,30.02,East,92,15.0,25.0,-999,-99.99,,,-99.99,,2013-02-26 17:11:00,
2013-02-26 12:22:00,34.0,-99.9,30.71,East,87,15.0,25.0,-999,-99.99,,,-99.99,,2013-02-26 17:22:00,
2013-02-26 12:32:00,34.0,-99.9,30.01,East,87,15.0,25.0,-999,-99.99,,,-99.99,,2013-02-26 17:32:00,
2013-02-26 12:40:00,34.0,-99.9,29.98,East,84,22.0,31.0,-999,-99.99,,,-99.99,,2013-02-26 17:40:00,
2013-02-26 12:42:00,34.0,-99.9,30.71,East,87,15.0,25.0,-999,-99.99,,,-99.99,,2013-02-26 17:42:00,
2013-02-26 12:52:00,34.0,-99.9,30.68,East,86,17.0,30.0,-999,-99.99,,,-99.99,,2013-02-26 17:52:00,
2013-02-26 13:02:00,34.0,-99.9,30.68,East,84,22.0,31.0,-999,-99.99,,,-99.99,,2013-02-26 18:02:00,
2013-02-26 13:12:00,34.0,-99.9,29.98,East,84,22.0,31.0,-999,-99.99,,,-99.99,,2013-02-26 18:12:00,
2013-02-26 13:21:00,34.0,-99.9,29.98,East,84,22.0,31.0,-999,-99.99,,,-99.99,,2013-02-26 18:21:00,
2013-02-26 13:32:00,34.0,-99.9,29.98,East,84,22.0,31.0,-999,-99.99,,,-99.99,,2013-02-26 18:32:00,
2013-02-26 13:53:00,34.0,-99.9,29.95,ENE,77,24.0,0.0,-999,-99.99,,,-99.99,,2013-02-26 18:53:00,
2013-02-26 14:02:00,35.0,-99.9,30.63,ENE,78,26.0,31.0,-999,-99.99,,,-99.99,,2013-02-26 19:02:00,
2013-02-26 14:11:00,35.0,-99.9,29.93,ENE,78,26.0,31.0,-999,-99.99,,,-99.99,,2013-02-26 19:11:00,
2013-02-26 14:22:00,34.0,-99.9,30.64,ENE,73,28.0,31.0,-999,-99.99,,,-99.99,,2013-02-26 19:22:00,
2013-02-26 14:32:00,34.0,-99.9,29.94,ENE,73,28.0,31.0,-999,-99.99,,,-99.99,,2013-02-26 19:32:00,
2013-02-26 14:42:00,35.0,-99.9,30.62,ENE,76,28.0,0.0,-999,-99.99,,,-99.99,,2013-02-26 19:42:00,
2013-02-26 14:52:00,35.0,-99.9,29.92,ENE,76,28.0,0.0,-999,-99.99,,,-99.99,,2013-02-26 19:52:00,
2013-02-26 15:01:00,34.0,-99.9,30.62,ENE,76,29.0,35.0,-999,-99.99,,,-99.99,,2013-02-26 20:01:00,
2013-02-26 15:11:00,34.0,-99.9,29.92,ENE,76,29.0,35.0,-999,-99.99,,,-99.99,,2013-02-26 20:11:00,
2013-02-26 15:22:00,34.0,-99.9,29.92,ENE,76,29.0,35.0,-999,-99.99,,,-99.99,,2013-02-26 20:22:00,
2013-02-26 15:32:00,34.0,-99.9,30.62,ENE,77,28.0,29.0,-999,-99.99,,,-99.99,,2013-02-26 20:32:00,
2013-02-26 15:42:00,34.0,-99.9,-100.00,ENE,77,28.0,29.0,-999,-99.99,,,-99.99,,2013-02-26 20:42:00,
2013-02-26 15:52:00,34.0,-99.9,-100.00,ENE,77,28.0,29.0,-999,-99.99,,,-99.99,,2013-02-26 20:52:00,
2013-02-26 16:02:00,33.0,-99.9,30.60,ENE,78,28.0,33.0,-999,-99.99,,,-99.99,,2013-02-26 21:02:00,
2013-02-26 16:11:00,33.0,-99.9,-100.00,ENE,78,28.0,33.0,-999,-99.99,,,-99.99,,2013-02-26 21:11:00,
2013-02-26 16:21:00,33.0,-99.9,-100.00,ENE,78,28.0,33.0,-999,-99.99,,,-99.99,,2013-02-26 21:21:00,
2013-02-26 16:31:00,34.0,-99.9,30.61,East,85,21.0,29.0,-999,-99.99,,,-99.99,,2013-02-26 21:31:00,
2013-02-26 16:41:00,33.0,-99.9,30.59,East,80,30.0,0.0,-999,-99.99,,,-99.99,,2013-02-26 21:41:00,
2013-02-26 16:51:00,33.0,-99.9,30.59,East,80,30.0,0.0,-999,-99.99,,,-99.99,,2013-02-26 21:51:00,
2013-02-26 17:01:00,33.0,-99.9,30.60,ENE,78,25.0,30.0,-999,-99.99,,,-99.99,,2013-02-26 22:01:00,
2013-02-26 17:11:00,33.0,-99.9,29.90,ENE,78,25.0,30.0,-999,-99.99,,,-99.99,,2013-02-26 22:11:00,
2013-02-26 17:21:00,33.0,-99.9,30.60,ENE,78,24.0,30.0,-999,-99.99,,,-99.99,,2013-02-26 22:21:00,
2013-02-26 17:32:00,33.0,-99.9,29.90,ENE,78,24.0,30.0,-999,-99.99,,,-99.99,,2013-02-26 22:32:00,
2013-02-26 17:42:00,33.0,-99.9,29.90,ENE,78,24.0,30.0,-999,-99.99,,,-99.99,,2013-02-26 22:42:00,
2013-02-26 17:52:00,33.0,-99.9,29.90,ENE,78,24.0,30.0,-999,-99.99,,,-99.99,,2013-02-26 22:52:00,
2013-02-26 18:01:00,32.0,-99.9,30.59,ENE,72,32.0,38.0,-999,-99.99,,,-99.99,,2013-02-26 23:01:00,
2013-02-26 18:11:00,32.0,-99.9,29.89,ENE,72,32.0,38.0,-999,-99.99,,,-99.99,,2013-02-26 23:11:00,
2013-02-26 18:21:00,32.0,-99.9,30.58,ENE,72,30.0,30.0,-999,-99.99,,,-99.99,,2013-02-26 23:21:00,
2013-02-26 18:32:00,32.0,-99.9,29.88,ENE,72,30.0,30.0,-999,-99.99,,,-99.99,,2013-02-26 23:32:00,
2013-02-26 18:42:00,32.0,-99.9,29.88,ENE,72,30.0,30.0,-999,-99.99,,,-99.99,,2013-02-26 23:42:00,
2013-02-26 18:52:00,32.0,-99.9,29.88,ENE,69,33.0,0.0,-999,-99.99,,,-99.99,,2013-02-26 23:52:00,
2013-02-26 19:02:00,32.0,-99.9,30.59,ENE,71,34.0,39.0,-999,-99.99,,,-99.99,,2013-02-27 00:02:00,
2013-02-26 19:11:00,32.0,-99.9,29.89,ENE,71,34.0,39.0,-999,-99.99,,,-99.99,,2013-02-27 00:11:00,
2013-02-26 19:22:00,32.0,-99.9,29.89,ENE,71,34.0,39.0,-999,-99.99,,,-99.99,,2013-02-27 00:22:00,
2013-02-26 19:32:00,32.0,-99.9,30.59,ENE,69,33.0,33.0,-999,-99.99,,,-99.99,,2013-02-27 00:32:00,
2013-02-26 19:42:00,32.0,-99.9,29.89,ENE,69,33.0,33.0,-999,-99.99,,,-99.99,,2013-02-27 00:42:00,
2013-02-26 19:52:00,32.0,-99.9,29.89,ENE,66,29.0,0.0,-999,-99.99,,,-99.99,,2013-02-27 00:52:00,
2013-02-26 20:01:00,32.0,-99.9,30.59,ENE,65,28.0,39.0,-999,-99.99,,,-99.99,,2013-02-27 01:01:00,
2013-02-26 20:11:00,32.0,-99.9,29.89,ENE,65,28.0,39.0,-999,-99.99,,,-99.99,,2013-02-27 01:11:00,
2013-02-26 20:22:00,32.0,-99.9,30.59,ENE,69,33.0,33.0,-999,-99.99,,,-99.99,,2013-02-27 01:22:00,
2013-02-26 20:32:00,32.0,-99.9,29.89,ENE,69,33.0,33.0,-999,-99.99,,,-99.99,,2013-02-27 01:32:00,
2013-02-26 20:42:00,32.0,-99.9,29.89,ENE,69,33.0,33.0,-999,-99.99,,,-99.99,,2013-02-27 01:42:00,
2013-02-26 20:52:00,32.0,-99.9,29.87,ENE,62,34.0,0.0,-999,-99.99,,,-99.99,,2013-02-27 01:52:00,
2013-02-26 21:02:00,32.0,-99.9,29.86,ENE,64,33.0,40.0,-999,-99.99,,,-99.99,,2013-02-27 02:02:00,
2013-02-26 21:16:00,32.0,-99.9,29.86,ENE,64,33.0,40.0,-999,-99.99,,,-99.99,,2013-02-27 02:16:00,
2013-02-26 21:24:00,32.0,-99.9,29.86,ENE,64,33.0,40.0,-999,-99.99,,,-99.99,,2013-02-27 02:24:00,
2013-02-26 21:32:00,32.0,-99.9,29.86,ENE,62,35.0,40.0,-999,-99.99,,,-99.99,,2013-02-27 02:32:00,
2013-02-26 21:42:00,32.0,-99.9,29.86,ENE,62,35.0,40.0,-999,-99.99,,,-99.99,,2013-02-27 02:42:00,
2013-02-26 21:52:00,31.0,-99.9,30.54,ENE,73,33.0,0.0,-999,-99.99,,,-99.99,,2013-02-27 02:52:00,
2013-02-26 22:02:00,31.0,-99.9,30.53,ENE,68,33.0,38.0,-999,-99.99,,,-99.99,,2013-02-27 03:02:00,
2013-02-26 22:11:00,31.0,-99.9,29.84,ENE,68,33.0,38.0,-999,-99.99,,,-99.99,,2013-02-27 03:11:00,
2013-02-26 22:22:00,31.0,-99.9,29.84,ENE,68,33.0,38.0,-999,-99.99,,,-99.99,,2013-02-27 03:22:00,
2013-02-26 22:32:00,32.0,-99.9,30.52,ENE,66,30.0,41.0,-999,-99.99,,,-99.99,,2013-02-27 03:32:00,
2013-02-26 22:42:00,32.0,-99.9,29.83,ENE,66,30.0,41.0,-999,-99.99,,,-99.99,,2013-02-27 03:42:00,
2013-02-26 22:52:00,32.0,-99.9,30.51,ENE,68,30.0,0.0,-999,-99.99,,,-99.99,,2013-02-27 03:52:00,
2013-02-26 23:02:00,32.0,-99.9,30.49,ENE,68,32.0,38.0,-999,-99.99,,,-99.99,,2013-02-27 04:02:00,
2013-02-26 23:12:00,32.0,-99.9,29.80,ENE,68,32.0,38.0,-999,-99.99,,,-99.99,,2013-02-27 04:12:00,
2013-02-26 23:22:00,32.0,-99.9,29.80,ENE,68,32.0,38.0,-999,-99.99,,,-99.99,,2013-02-27 04:22:00,
2013-02-26 23:32:00,32.0,-99.9,30.49,ENE,64,34.0,34.0,-999,-99.99,,,-99.99,,2013-02-27 04:32:00,
2013-02-26 23:42:00,32.0,-99.9,30.49,ENE,64,34.0,34.0,-999,-99.99,,,-99.99,,2013-02-27 04:42:00,
2013-02-26 23:52:00,32.0,-99.9,29.80,ENE,64,34.0,34.0,-999,-99.99,,,-99.99,,2013-02-27 04:52:00,